Weather in Warsaw

United States     38°14′33″N   93°22′57″W
temp.,
°C
wind,
m/s
gust,
m/s
humid.,
%
clouds,
%
prec.,
mm/h
press.,
hPa
HPBL,
m
18 september, sat
sat1801:00+19e11725 0.0 101911
04:00+19ene11680 0.0 101913
07:00+18e22840 0.0 102018
10:00+26ene35630 0.0 1020436
13:00+31e35440 0.0 10191876
16:00+33e35330 0.0 10162465
19:00+27ene225420 0.0 101631
22:00+22se23770 0.0 101767
19 september, sun
sun1901:00+20se23870 0.0 101769
04:00+19ese25910 0.0 1017119
07:00+19se24950 0.0 101783
10:00+26se3567100 0.0 1016635
13:00+30se354831 0.0 10141807
16:00+30se554963 0.0 10111572
19:00+26se596330 0.0 1011470
22:00+23se411760 0.0 1011421
20 september, mon
mon2001:00+21se312850 0.0 1011370
04:00+20se38940 0.0 1010233
07:00+20sse38947 0.0 1010241
10:00+26s59640 0.0 1010655
13:00+32s694253 0.0 10081448
16:00+34s583399 0.0 10062297
19:00+27sse265386 0.1 1007109
22:00+27sse414532 0.0 1008492
21 september, tue
tue2101:00+19n589895 1.9 1013255
04:00+17nnw51097100 1.9 1015540
07:00+15nnw4109589 4.5 1018533
10:00+16nnw588230 0.4 1021675
13:00+23nnw69410 0.4 10211615
16:00+25n69290 0.0 10212046
19:00+19n37390 0.0 1022140
22:00+15nne22450 0.0 102439
22 september, wed
wed2201:00+13ne12520 0.0 102511
04:00+12e12580 0.0 102511
07:00+11wnw11630 0.0 102610
10:00+19w22430 0.0 1027396
13:00+24wnw35290 0.0 10251617
16:00+26nw35250 0.0 10222793
19:00+19nne11440 0.0 102214
22:00+15se11500 0.0 102311